Satellite: AUBIESAT Catalog number: 37854 Epoch time: 12075.77515088 Element set: 125 Inclination: 101.7195 deg RA of node: 073.6201 deg Eccentricity: 0.0251165 Arg of perigee: 256.2954 deg Mean anomaly: 101.0167 deg Mean motion: 14.79498735 rev/day Decay rate: 4.326e-05 rev/day^2 Epoch rev: 2057 Checksum: 297
Satellite: HRBE Catalog number: 37855 Epoch time: 12074.96932450 Element set: 0132 Inclination: 101.7215 deg RA of node: 072.4305 deg Eccentricity: 0.0251341 Arg of perigee: 258.6597 deg Mean anomaly: 098.6288 deg Mean motion: 14.79383672 rev/day Decay rate: 4.595e-05 rev/day^2 Epoch rev: 02045 Checksum: 315
Satellite: RS-39 Catalog number: 38051 Epoch time: 12075.92525311 Element set: 154 Inclination: 051.6447 deg RA of node: 243.7325 deg Eccentricity: 0.0011453 Arg of perigee: 062.3551 deg Mean anomaly: 094.6901 deg Mean motion: 15.22748450 rev/day Decay rate: 8.291e-05 rev/day^2 Epoch rev: 775 Checksum: 286
/EX
participants (1)
-
Ray Hoad